Index of /20260503/WXO-DD/model_rdps/10km/18/042
Name Last modified Size Description
Parent Directory -
20260503T18Z_MSC_RDPS_AbsoluteVorticity_IsbL-0250_RLatLon0.09_PT042H.grib2 2026-05-03 20:52 600K
20260503T18Z_MSC_RDPS_AbsoluteVorticity_IsbL-0500_RLatLon0.09_PT042H.grib2 2026-05-03 20:52 564K
20260503T18Z_MSC_RDPS_AbsoluteVorticity_IsbL-0700_RLatLon0.09_PT042H.grib2 2026-05-03 20:52 593K
20260503T18Z_MSC_RDPS_AbsoluteVorticity_IsbL-0850_RLatLon0.09_PT042H.grib2 2026-05-03 20:52 798K
20260503T18Z_MSC_RDPS_AirTemp_AGL-120m_RLatLon0.09_PT042H.grib2 2026-05-03 20:52 381K
20260503T18Z_MSC_RDPS_AirTemp_AGL-2m_RLatLon0.09_PT042H.grib2 2026-05-03 20:52 629K
20260503T18Z_MSC_RDPS_AirTemp_AGL-40m_RLatLon0.09_PT042H.grib2 2026-05-03 20:52 396K
20260503T18Z_MSC_RDPS_AirTemp_AGL-80m_RLatLon0.09_PT042H.grib2 2026-05-03 20:52 387K
20260503T18Z_MSC_RDPS_AirTemp_IsbL-0001_RLatLon0.09_PT042H.grib2 2026-05-03 20:52 310K
20260503T18Z_MSC_RDPS_AirTemp_IsbL-0005_RLatLon0.09_PT042H.grib2 2026-05-03 20:52 292K
20260503T18Z_MSC_RDPS_AirTemp_IsbL-0010_RLatLon0.09_PT042H.grib2 2026-05-03 20:52 394K
20260503T18Z_MSC_RDPS_AirTemp_IsbL-0020_RLatLon0.09_PT042H.grib2 2026-05-03 20:52 319K
20260503T18Z_MSC_RDPS_AirTemp_IsbL-0030_RLatLon0.09_PT042H.grib2 2026-05-03 20:52 340K
20260503T18Z_MSC_RDPS_AirTemp_IsbL-0050_RLatLon0.09_PT042H.grib2 2026-05-03 20:52 320K
20260503T18Z_MSC_RDPS_AirTemp_IsbL-0100_RLatLon0.09_PT042H.grib2 2026-05-03 20:52 430K
20260503T18Z_MSC_RDPS_AirTemp_IsbL-0150_RLatLon0.09_PT042H.grib2 2026-05-03 20:52 417K
20260503T18Z_MSC_RDPS_AirTemp_IsbL-0175_RLatLon0.09_PT042H.grib2 2026-05-03 20:52 408K
20260503T18Z_MSC_RDPS_AirTemp_IsbL-0200_RLatLon0.09_PT042H.grib2 2026-05-03 20:52 411K
20260503T18Z_MSC_RDPS_AirTemp_IsbL-0225_RLatLon0.09_PT042H.grib2 2026-05-03 20:52 411K
20260503T18Z_MSC_RDPS_AirTemp_IsbL-0250_RLatLon0.09_PT042H.grib2 2026-05-03 20:52 416K
20260503T18Z_MSC_RDPS_AirTemp_IsbL-0275_RLatLon0.09_PT042H.grib2 2026-05-03 20:52 400K
20260503T18Z_MSC_RDPS_AirTemp_IsbL-0300_RLatLon0.09_PT042H.grib2 2026-05-03 20:52 409K
20260503T18Z_MSC_RDPS_AirTemp_IsbL-0350_RLatLon0.09_PT042H.grib2 2026-05-03 20:52 425K
20260503T18Z_MSC_RDPS_AirTemp_IsbL-0400_RLatLon0.09_PT042H.grib2 2026-05-03 20:52 429K
20260503T18Z_MSC_RDPS_AirTemp_IsbL-0450_RLatLon0.09_PT042H.grib2 2026-05-03 20:52 437K
20260503T18Z_MSC_RDPS_AirTemp_IsbL-0500_RLatLon0.09_PT042H.grib2 2026-05-03 20:52 447K
20260503T18Z_MSC_RDPS_AirTemp_IsbL-0550_RLatLon0.09_PT042H.grib2 2026-05-03 20:52 464K
20260503T18Z_MSC_RDPS_AirTemp_IsbL-0600_RLatLon0.09_PT042H.grib2 2026-05-03 20:52 444K
20260503T18Z_MSC_RDPS_AirTemp_IsbL-0650_RLatLon0.09_PT042H.grib2 2026-05-03 20:52 459K
20260503T18Z_MSC_RDPS_AirTemp_IsbL-0700_RLatLon0.09_PT042H.grib2 2026-05-03 20:52 487K
20260503T18Z_MSC_RDPS_AirTemp_IsbL-0750_RLatLon0.09_PT042H.grib2 2026-05-03 20:52 527K
20260503T18Z_MSC_RDPS_AirTemp_IsbL-0800_RLatLon0.09_PT042H.grib2 2026-05-03 20:52 585K
20260503T18Z_MSC_RDPS_AirTemp_IsbL-0850_RLatLon0.09_PT042H.grib2 2026-05-03 20:52 650K
20260503T18Z_MSC_RDPS_AirTemp_IsbL-0875_RLatLon0.09_PT042H.grib2 2026-05-03 20:52 670K
20260503T18Z_MSC_RDPS_AirTemp_IsbL-0900_RLatLon0.09_PT042H.grib2 2026-05-03 20:52 543K
20260503T18Z_MSC_RDPS_AirTemp_IsbL-0925_RLatLon0.09_PT042H.grib2 2026-05-03 20:52 668K
20260503T18Z_MSC_RDPS_AirTemp_IsbL-0950_RLatLon0.09_PT042H.grib2 2026-05-03 20:52 663K
20260503T18Z_MSC_RDPS_AirTemp_IsbL-0970_RLatLon0.09_PT042H.grib2 2026-05-03 20:52 652K
20260503T18Z_MSC_RDPS_AirTemp_IsbL-0985_RLatLon0.09_PT042H.grib2 2026-05-03 20:52 639K
20260503T18Z_MSC_RDPS_AirTemp_IsbL-1000_RLatLon0.09_PT042H.grib2 2026-05-03 20:52 622K
20260503T18Z_MSC_RDPS_AirTemp_IsbL-1015_RLatLon0.09_PT042H.grib2 2026-05-03 20:52 504K
20260503T18Z_MSC_RDPS_Albedo_Sfc_RLatLon0.09_PT042H.grib2 2026-05-03 20:52 151K
20260503T18Z_MSC_RDPS_CAPE_Sfc_RLatLon0.09_PT042H.grib2 2026-05-03 20:52 1.7M
20260503T18Z_MSC_RDPS_CIN_Sfc_RLatLon0.09_PT042H.grib2 2026-05-03 20:52 1.2M
20260503T18Z_MSC_RDPS_CloudWater_EAtm_RLatLon0.09_PT042H.grib2 2026-05-03 20:52 222K
20260503T18Z_MSC_RDPS_ConvectivePrecip-Accum_Sfc_RLatLon0.09_PT042H.grib2 2026-05-03 20:52 1.0M
20260503T18Z_MSC_RDPS_DewPointDepression_AGL-2m_RLatLon0.09_PT042H.grib2 2026-05-03 20:52 406K
20260503T18Z_MSC_RDPS_DewPointDepression_IsbL-0001_RLatLon0.09_PT042H.grib2 2026-05-03 20:52 193
20260503T18Z_MSC_RDPS_DewPointDepression_IsbL-0005_RLatLon0.09_PT042H.grib2 2026-05-03 20:52 193
20260503T18Z_MSC_RDPS_DewPointDepression_IsbL-0010_RLatLon0.09_PT042H.grib2 2026-05-03 20:52 193
20260503T18Z_MSC_RDPS_DewPointDepression_IsbL-0020_RLatLon0.09_PT042H.grib2 2026-05-03 20:52 193
20260503T18Z_MSC_RDPS_DewPointDepression_IsbL-0030_RLatLon0.09_PT042H.grib2 2026-05-03 20:52 193
20260503T18Z_MSC_RDPS_DewPointDepression_IsbL-0050_RLatLon0.09_PT042H.grib2 2026-05-03 20:52 80K
20260503T18Z_MSC_RDPS_DewPointDepression_IsbL-0100_RLatLon0.09_PT042H.grib2 2026-05-03 20:52 116K
20260503T18Z_MSC_RDPS_DewPointDepression_IsbL-0150_RLatLon0.09_PT042H.grib2 2026-05-03 20:52 140K
20260503T18Z_MSC_RDPS_DewPointDepression_IsbL-0175_RLatLon0.09_PT042H.grib2 2026-05-03 20:52 174K
20260503T18Z_MSC_RDPS_DewPointDepression_IsbL-0200_RLatLon0.09_PT042H.grib2 2026-05-03 20:52 214K
20260503T18Z_MSC_RDPS_DewPointDepression_IsbL-0225_RLatLon0.09_PT042H.grib2 2026-05-03 20:52 250K
20260503T18Z_MSC_RDPS_DewPointDepression_IsbL-0250_RLatLon0.09_PT042H.grib2 2026-05-03 20:52 290K
20260503T18Z_MSC_RDPS_DewPointDepression_IsbL-0275_RLatLon0.09_PT042H.grib2 2026-05-03 20:52 300K
20260503T18Z_MSC_RDPS_DewPointDepression_IsbL-0300_RLatLon0.09_PT042H.grib2 2026-05-03 20:52 320K
20260503T18Z_MSC_RDPS_DewPointDepression_IsbL-0350_RLatLon0.09_PT042H.grib2 2026-05-03 20:52 329K
20260503T18Z_MSC_RDPS_DewPointDepression_IsbL-0400_RLatLon0.09_PT042H.grib2 2026-05-03 20:52 338K
20260503T18Z_MSC_RDPS_DewPointDepression_IsbL-0450_RLatLon0.09_PT042H.grib2 2026-05-03 20:52 342K
20260503T18Z_MSC_RDPS_DewPointDepression_IsbL-0500_RLatLon0.09_PT042H.grib2 2026-05-03 20:52 347K
20260503T18Z_MSC_RDPS_DewPointDepression_IsbL-0550_RLatLon0.09_PT042H.grib2 2026-05-03 20:52 357K
20260503T18Z_MSC_RDPS_DewPointDepression_IsbL-0600_RLatLon0.09_PT042H.grib2 2026-05-03 20:52 364K
20260503T18Z_MSC_RDPS_DewPointDepression_IsbL-0650_RLatLon0.09_PT042H.grib2 2026-05-03 20:52 369K
20260503T18Z_MSC_RDPS_DewPointDepression_IsbL-0700_RLatLon0.09_PT042H.grib2 2026-05-03 20:52 383K
20260503T18Z_MSC_RDPS_DewPointDepression_IsbL-0750_RLatLon0.09_PT042H.grib2 2026-05-03 20:52 405K
20260503T18Z_MSC_RDPS_DewPointDepression_IsbL-0800_RLatLon0.09_PT042H.grib2 2026-05-03 20:52 440K
20260503T18Z_MSC_RDPS_DewPointDepression_IsbL-0850_RLatLon0.09_PT042H.grib2 2026-05-03 20:52 476K
20260503T18Z_MSC_RDPS_DewPointDepression_IsbL-0875_RLatLon0.09_PT042H.grib2 2026-05-03 20:52 476K
20260503T18Z_MSC_RDPS_DewPointDepression_IsbL-0900_RLatLon0.09_PT042H.grib2 2026-05-03 20:52 464K
20260503T18Z_MSC_RDPS_DewPointDepression_IsbL-0925_RLatLon0.09_PT042H.grib2 2026-05-03 20:52 449K
20260503T18Z_MSC_RDPS_DewPointDepression_IsbL-0950_RLatLon0.09_PT042H.grib2 2026-05-03 20:52 442K
20260503T18Z_MSC_RDPS_DewPointDepression_IsbL-0970_RLatLon0.09_PT042H.grib2 2026-05-03 20:52 439K
20260503T18Z_MSC_RDPS_DewPointDepression_IsbL-0985_RLatLon0.09_PT042H.grib2 2026-05-03 20:52 435K
20260503T18Z_MSC_RDPS_DewPointDepression_IsbL-1000_RLatLon0.09_PT042H.grib2 2026-05-03 20:52 433K
20260503T18Z_MSC_RDPS_DewPointDepression_IsbL-1015_RLatLon0.09_PT042H.grib2 2026-05-03 20:52 425K
20260503T18Z_MSC_RDPS_DewPoint_AGL-2m_RLatLon0.09_PT042H.grib2 2026-05-03 20:52 398K
20260503T18Z_MSC_RDPS_DownwardLongwaveRadiationFlux-Accum_Sfc_RLatLon0.09_PT042H.grib2 2026-05-03 20:52 359K
20260503T18Z_MSC_RDPS_DownwardShortwaveRadiationFlux-Accum_NTAtm_RLatLon0.09_PT042H.grib2 2026-05-03 20:52 123K
20260503T18Z_MSC_RDPS_DownwardShortwaveRadiationFlux-Accum_Sfc_RLatLon0.09_PT042H.grib2 2026-05-03 20:52 582K
20260503T18Z_MSC_RDPS_FreezingRain-Accum12h_Sfc_RLatLon0.09_PT042H.grib2 2026-05-03 20:52 81K
20260503T18Z_MSC_RDPS_FreezingRain-Accum1h_Sfc_RLatLon0.09_PT042H.grib2 2026-05-03 20:52 46K
20260503T18Z_MSC_RDPS_FreezingRain-Accum24h_Sfc_RLatLon0.09_PT042H.grib2 2026-05-03 20:52 101K
20260503T18Z_MSC_RDPS_FreezingRain-Accum3h_Sfc_RLatLon0.09_PT042H.grib2 2026-05-03 20:52 52K
20260503T18Z_MSC_RDPS_FreezingRain-Accum6h_Sfc_RLatLon0.09_PT042H.grib2 2026-05-03 20:52 68K
20260503T18Z_MSC_RDPS_FreezingRain-Accum_Sfc_RLatLon0.09_PT042H.grib2 2026-05-03 20:52 147K
20260503T18Z_MSC_RDPS_GeopotentialHeight_IsbL-0001_RLatLon0.09_PT042H.grib2 2026-05-03 20:52 319K
20260503T18Z_MSC_RDPS_GeopotentialHeight_IsbL-0005_RLatLon0.09_PT042H.grib2 2026-05-03 20:52 311K
20260503T18Z_MSC_RDPS_GeopotentialHeight_IsbL-0010_RLatLon0.09_PT042H.grib2 2026-05-03 20:52 312K
20260503T18Z_MSC_RDPS_GeopotentialHeight_IsbL-0020_RLatLon0.09_PT042H.grib2 2026-05-03 20:52 410K
20260503T18Z_MSC_RDPS_GeopotentialHeight_IsbL-0030_RLatLon0.09_PT042H.grib2 2026-05-03 20:52 412K
20260503T18Z_MSC_RDPS_GeopotentialHeight_IsbL-0050_RLatLon0.09_PT042H.grib2 2026-05-03 20:52 315K
20260503T18Z_MSC_RDPS_GeopotentialHeight_IsbL-0100_RLatLon0.09_PT042H.grib2 2026-05-03 20:52 289K
20260503T18Z_MSC_RDPS_GeopotentialHeight_IsbL-0150_RLatLon0.09_PT042H.grib2 2026-05-03 20:52 230K
20260503T18Z_MSC_RDPS_GeopotentialHeight_IsbL-0175_RLatLon0.09_PT042H.grib2 2026-05-03 20:52 233K
20260503T18Z_MSC_RDPS_GeopotentialHeight_IsbL-0200_RLatLon0.09_PT042H.grib2 2026-05-03 20:52 236K
20260503T18Z_MSC_RDPS_GeopotentialHeight_IsbL-0225_RLatLon0.09_PT042H.grib2 2026-05-03 20:52 238K
20260503T18Z_MSC_RDPS_GeopotentialHeight_IsbL-0250_RLatLon0.09_PT042H.grib2 2026-05-03 20:52 239K
20260503T18Z_MSC_RDPS_GeopotentialHeight_IsbL-0275_RLatLon0.09_PT042H.grib2 2026-05-03 20:52 237K
20260503T18Z_MSC_RDPS_GeopotentialHeight_IsbL-0300_RLatLon0.09_PT042H.grib2 2026-05-03 20:52 237K
20260503T18Z_MSC_RDPS_GeopotentialHeight_IsbL-0350_RLatLon0.09_PT042H.grib2 2026-05-03 20:52 232K
20260503T18Z_MSC_RDPS_GeopotentialHeight_IsbL-0400_RLatLon0.09_PT042H.grib2 2026-05-03 20:52 305K
20260503T18Z_MSC_RDPS_GeopotentialHeight_IsbL-0450_RLatLon0.09_PT042H.grib2 2026-05-03 20:52 300K
20260503T18Z_MSC_RDPS_GeopotentialHeight_IsbL-0500_RLatLon0.09_PT042H.grib2 2026-05-03 20:52 296K
20260503T18Z_MSC_RDPS_GeopotentialHeight_IsbL-0550_RLatLon0.09_PT042H.grib2 2026-05-03 20:52 293K
20260503T18Z_MSC_RDPS_GeopotentialHeight_IsbL-0600_RLatLon0.09_PT042H.grib2 2026-05-03 20:52 262K
20260503T18Z_MSC_RDPS_GeopotentialHeight_IsbL-0650_RLatLon0.09_PT042H.grib2 2026-05-03 20:52 259K
20260503T18Z_MSC_RDPS_GeopotentialHeight_IsbL-0700_RLatLon0.09_PT042H.grib2 2026-05-03 20:52 258K
20260503T18Z_MSC_RDPS_GeopotentialHeight_IsbL-0750_RLatLon0.09_PT042H.grib2 2026-05-03 20:52 261K
20260503T18Z_MSC_RDPS_GeopotentialHeight_IsbL-0800_RLatLon0.09_PT042H.grib2 2026-05-03 20:52 355K
20260503T18Z_MSC_RDPS_GeopotentialHeight_IsbL-0850_RLatLon0.09_PT042H.grib2 2026-05-03 20:52 367K
20260503T18Z_MSC_RDPS_GeopotentialHeight_IsbL-0875_RLatLon0.09_PT042H.grib2 2026-05-03 20:52 370K
20260503T18Z_MSC_RDPS_GeopotentialHeight_IsbL-0900_RLatLon0.09_PT042H.grib2 2026-05-03 20:52 371K
20260503T18Z_MSC_RDPS_GeopotentialHeight_IsbL-0925_RLatLon0.09_PT042H.grib2 2026-05-03 20:52 285K
20260503T18Z_MSC_RDPS_GeopotentialHeight_IsbL-0950_RLatLon0.09_PT042H.grib2 2026-05-03 20:52 287K
20260503T18Z_MSC_RDPS_GeopotentialHeight_IsbL-0970_RLatLon0.09_PT042H.grib2 2026-05-03 20:52 290K
20260503T18Z_MSC_RDPS_GeopotentialHeight_IsbL-0985_RLatLon0.09_PT042H.grib2 2026-05-03 20:52 296K
20260503T18Z_MSC_RDPS_GeopotentialHeight_IsbL-1000_RLatLon0.09_PT042H.grib2 2026-05-03 20:52 305K
20260503T18Z_MSC_RDPS_GeopotentialHeight_IsbL-1015_RLatLon0.09_PT042H.grib2 2026-05-03 20:52 317K
20260503T18Z_MSC_RDPS_Humidex_Sfc_RLatLon0.09_PT042H.grib2 2026-05-03 20:52 2.4M
20260503T18Z_MSC_RDPS_IcePellets-Accum12h_Sfc_RLatLon0.09_PT042H.grib2 2026-05-03 20:52 19K
20260503T18Z_MSC_RDPS_IcePellets-Accum1h_Sfc_RLatLon0.09_PT042H.grib2 2026-05-03 20:52 11K
20260503T18Z_MSC_RDPS_IcePellets-Accum24h_Sfc_RLatLon0.09_PT042H.grib2 2026-05-03 20:52 26K
20260503T18Z_MSC_RDPS_IcePellets-Accum3h_Sfc_RLatLon0.09_PT042H.grib2 2026-05-03 20:52 12K
20260503T18Z_MSC_RDPS_IcePellets-Accum6h_Sfc_RLatLon0.09_PT042H.grib2 2026-05-03 20:52 16K
20260503T18Z_MSC_RDPS_IcePellets-Accum_Sfc_RLatLon0.09_PT042H.grib2 2026-05-03 20:52 30K
20260503T18Z_MSC_RDPS_KIndex_Sfc_RLatLon0.09_PT042H.grib2 2026-05-03 20:52 2.5M
20260503T18Z_MSC_RDPS_LatentHeatNetFlux_Sfc_RLatLon0.09_PT042H.grib2 2026-05-03 20:52 442K
20260503T18Z_MSC_RDPS_LiftedIndex-MU-VT_IsbL-0500_RLatLon0.09_PT042H.grib2 2026-05-03 20:52 2.4M
20260503T18Z_MSC_RDPS_NetLongwaveRadiationFlux-Accum_Sfc_RLatLon0.09_PT042H.grib2 2026-05-03 20:52 530K
20260503T18Z_MSC_RDPS_NetShortwaveRadiationFlux-Accum_Sfc_RLatLon0.09_PT042H.grib2 2026-05-03 20:52 579K
20260503T18Z_MSC_RDPS_PlanetaryBoundaryLayerHeight_Sfc_RLatLon0.09_PT042H.grib2 2026-05-03 20:52 1.0M
20260503T18Z_MSC_RDPS_Precip-Accum12h_Sfc_RLatLon0.09_PT042H.grib2 2026-05-03 20:52 1.8M
20260503T18Z_MSC_RDPS_Precip-Accum1h_Sfc_RLatLon0.09_PT042H.grib2 2026-05-03 20:52 1.3M
20260503T18Z_MSC_RDPS_Precip-Accum24h_Sfc_RLatLon0.09_PT042H.grib2 2026-05-03 20:52 1.9M
20260503T18Z_MSC_RDPS_Precip-Accum3h_Sfc_RLatLon0.09_PT042H.grib2 2026-05-03 20:52 1.4M
20260503T18Z_MSC_RDPS_Precip-Accum6h_Sfc_RLatLon0.09_PT042H.grib2 2026-05-03 20:52 1.6M
20260503T18Z_MSC_RDPS_Precip-Accum_Sfc_RLatLon0.09_PT042H.grib2 2026-05-03 20:52 2.0M
20260503T18Z_MSC_RDPS_PrecipRate_Sfc_RLatLon0.09_PT042H.grib2 2026-05-03 20:52 190K
20260503T18Z_MSC_RDPS_PrecipType-Instant_Sfc_RLatLon0.09_PT042H.grib2 2026-05-03 20:52 625K
20260503T18Z_MSC_RDPS_Pressure-Trend3h_Sfc_RLatLon0.09_PT042H.grib2 2026-05-03 20:52 1.2M
20260503T18Z_MSC_RDPS_Pressure_MSL_RLatLon0.09_PT042H.grib2 2026-05-03 20:52 329K
20260503T18Z_MSC_RDPS_Pressure_PVU-1.5_RLatLon0.09_PT042H.grib2 2026-05-03 20:52 2.5M
20260503T18Z_MSC_RDPS_Pressure_PVU-1_RLatLon0.09_PT042H.grib2 2026-05-03 20:52 2.4M
20260503T18Z_MSC_RDPS_Pressure_PVU-2_RLatLon0.09_PT042H.grib2 2026-05-03 20:52 2.4M
20260503T18Z_MSC_RDPS_Pressure_Sfc_RLatLon0.09_PT042H.grib2 2026-05-03 20:52 500K
20260503T18Z_MSC_RDPS_RadiativeTemp_Sfc_RLatLon0.09_PT042H.grib2 2026-05-03 20:52 300K
20260503T18Z_MSC_RDPS_Rain-Accum12h_Sfc_RLatLon0.09_PT042H.grib2 2026-05-03 20:52 1.2M
20260503T18Z_MSC_RDPS_Rain-Accum1h_Sfc_RLatLon0.09_PT042H.grib2 2026-05-03 20:52 671K
20260503T18Z_MSC_RDPS_Rain-Accum24h_Sfc_RLatLon0.09_PT042H.grib2 2026-05-03 20:52 1.4M
20260503T18Z_MSC_RDPS_Rain-Accum3h_Sfc_RLatLon0.09_PT042H.grib2 2026-05-03 20:52 752K
20260503T18Z_MSC_RDPS_Rain-Accum6h_Sfc_RLatLon0.09_PT042H.grib2 2026-05-03 20:52 1.0M
20260503T18Z_MSC_RDPS_Rain-Accum_Sfc_RLatLon0.09_PT042H.grib2 2026-05-03 20:52 1.7M
20260503T18Z_MSC_RDPS_RelativeHumidity_AGL-2m_RLatLon0.09_PT042H.grib2 2026-05-03 20:52 1.0M
20260503T18Z_MSC_RDPS_RelativeHumidity_IsbL-0010_RLatLon0.09_PT042H.grib2 2026-05-03 20:52 703K
20260503T18Z_MSC_RDPS_RelativeHumidity_IsbL-0020_RLatLon0.09_PT042H.grib2 2026-05-03 20:52 754K
20260503T18Z_MSC_RDPS_RelativeHumidity_IsbL-0030_RLatLon0.09_PT042H.grib2 2026-05-03 20:52 604K
20260503T18Z_MSC_RDPS_RelativeHumidity_IsbL-0050_RLatLon0.09_PT042H.grib2 2026-05-03 20:52 362K
20260503T18Z_MSC_RDPS_RelativeHumidity_IsbL-0100_RLatLon0.09_PT042H.grib2 2026-05-03 20:52 286K
20260503T18Z_MSC_RDPS_RelativeHumidity_IsbL-0150_RLatLon0.09_PT042H.grib2 2026-05-03 20:52 412K
20260503T18Z_MSC_RDPS_RelativeHumidity_IsbL-0175_RLatLon0.09_PT042H.grib2 2026-05-03 20:52 475K
20260503T18Z_MSC_RDPS_RelativeHumidity_IsbL-0200_RLatLon0.09_PT042H.grib2 2026-05-03 20:52 554K
20260503T18Z_MSC_RDPS_RelativeHumidity_IsbL-0225_RLatLon0.09_PT042H.grib2 2026-05-03 20:52 615K
20260503T18Z_MSC_RDPS_RelativeHumidity_IsbL-0250_RLatLon0.09_PT042H.grib2 2026-05-03 20:52 678K
20260503T18Z_MSC_RDPS_RelativeHumidity_IsbL-0275_RLatLon0.09_PT042H.grib2 2026-05-03 20:52 701K
20260503T18Z_MSC_RDPS_RelativeHumidity_IsbL-0300_RLatLon0.09_PT042H.grib2 2026-05-03 20:52 742K
20260503T18Z_MSC_RDPS_RelativeHumidity_IsbL-0350_RLatLon0.09_PT042H.grib2 2026-05-03 20:52 771K
20260503T18Z_MSC_RDPS_RelativeHumidity_IsbL-0400_RLatLon0.09_PT042H.grib2 2026-05-03 20:52 785K
20260503T18Z_MSC_RDPS_RelativeHumidity_IsbL-0450_RLatLon0.09_PT042H.grib2 2026-05-03 20:52 790K
20260503T18Z_MSC_RDPS_RelativeHumidity_IsbL-0500_RLatLon0.09_PT042H.grib2 2026-05-03 20:52 792K
20260503T18Z_MSC_RDPS_RelativeHumidity_IsbL-0550_RLatLon0.09_PT042H.grib2 2026-05-03 20:52 817K
20260503T18Z_MSC_RDPS_RelativeHumidity_IsbL-0600_RLatLon0.09_PT042H.grib2 2026-05-03 20:52 831K
20260503T18Z_MSC_RDPS_RelativeHumidity_IsbL-0650_RLatLon0.09_PT042H.grib2 2026-05-03 20:52 847K
20260503T18Z_MSC_RDPS_RelativeHumidity_IsbL-0700_RLatLon0.09_PT042H.grib2 2026-05-03 20:52 876K
20260503T18Z_MSC_RDPS_RelativeHumidity_IsbL-0750_RLatLon0.09_PT042H.grib2 2026-05-03 20:52 919K
20260503T18Z_MSC_RDPS_RelativeHumidity_IsbL-0800_RLatLon0.09_PT042H.grib2 2026-05-03 20:52 1.0M
20260503T18Z_MSC_RDPS_RelativeHumidity_IsbL-0850_RLatLon0.09_PT042H.grib2 2026-05-03 20:52 1.0M
20260503T18Z_MSC_RDPS_RelativeHumidity_IsbL-0875_RLatLon0.09_PT042H.grib2 2026-05-03 20:52 1.1M
20260503T18Z_MSC_RDPS_RelativeHumidity_IsbL-0900_RLatLon0.09_PT042H.grib2 2026-05-03 20:52 1.1M
20260503T18Z_MSC_RDPS_RelativeHumidity_IsbL-0925_RLatLon0.09_PT042H.grib2 2026-05-03 20:52 1.1M
20260503T18Z_MSC_RDPS_RelativeHumidity_IsbL-0950_RLatLon0.09_PT042H.grib2 2026-05-03 20:52 1.1M
20260503T18Z_MSC_RDPS_RelativeHumidity_IsbL-0970_RLatLon0.09_PT042H.grib2 2026-05-03 20:52 1.1M
20260503T18Z_MSC_RDPS_RelativeHumidity_IsbL-0985_RLatLon0.09_PT042H.grib2 2026-05-03 20:52 1.1M
20260503T18Z_MSC_RDPS_RelativeHumidity_IsbL-1000_RLatLon0.09_PT042H.grib2 2026-05-03 20:52 1.0M
20260503T18Z_MSC_RDPS_RelativeHumidity_IsbL-1015_RLatLon0.09_PT042H.grib2 2026-05-03 20:52 1.0M
20260503T18Z_MSC_RDPS_Runoff-Accum_Sfc_RLatLon0.09_PT042H.grib2 2026-05-03 20:52 51K
20260503T18Z_MSC_RDPS_SWEATIndex_Sfc_RLatLon0.09_PT042H.grib2 2026-05-03 20:52 2.4M
20260503T18Z_MSC_RDPS_SeeingIndex_EAtm_RLatLon0.09_PT042H.grib2 2026-05-03 20:52 1.0M
20260503T18Z_MSC_RDPS_SensibleHeatNetFlux_Sfc_RLatLon0.09_PT042H.grib2 2026-05-03 20:52 314K
20260503T18Z_MSC_RDPS_ShowalterIndex_IsbL-0500_RLatLon0.09_PT042H.grib2 2026-05-03 20:52 2.6M
20260503T18Z_MSC_RDPS_SkyTransparencyIndex_EAtm_RLatLon0.09_PT042H.grib2 2026-05-03 20:52 707K
20260503T18Z_MSC_RDPS_Snow-Accum12h_Sfc_RLatLon0.09_PT042H.grib2 2026-05-03 20:52 548K
20260503T18Z_MSC_RDPS_Snow-Accum1h_Sfc_RLatLon0.09_PT042H.grib2 2026-05-03 20:52 474K
20260503T18Z_MSC_RDPS_Snow-Accum24h_Sfc_RLatLon0.09_PT042H.grib2 2026-05-03 20:52 656K
20260503T18Z_MSC_RDPS_Snow-Accum3h_Sfc_RLatLon0.09_PT042H.grib2 2026-05-03 20:52 396K
20260503T18Z_MSC_RDPS_Snow-Accum6h_Sfc_RLatLon0.09_PT042H.grib2 2026-05-03 20:52 508K
20260503T18Z_MSC_RDPS_Snow-Accum_Sfc_RLatLon0.09_PT042H.grib2 2026-05-03 20:52 709K
20260503T18Z_MSC_RDPS_SnowDensity_Sfc_RLatLon0.09_PT042H.grib2 2026-05-03 20:52 173K
20260503T18Z_MSC_RDPS_SnowDepth_Sfc_RLatLon0.09_PT042H.grib2 2026-05-03 20:52 653K
20260503T18Z_MSC_RDPS_SoilTemp_DBS-0to10cm_RLatLon0.09_PT042H.grib2 2026-05-03 20:52 237K
20260503T18Z_MSC_RDPS_SoilTemp_Sfc_RLatLon0.09_PT042H.grib2 2026-05-03 20:52 279K
20260503T18Z_MSC_RDPS_SoilVolumetricIceContent_Sfc_RLatLon0.09_PT042H.grib2 2026-05-03 20:52 153K
20260503T18Z_MSC_RDPS_SoilVolumetricWaterContent_DBS-0to10cm_RLatLon0.09_PT042H.grib2 2026-05-03 20:52 277K
20260503T18Z_MSC_RDPS_SoilVolumetricWaterContent_DBS-0to1cm_RLatLon0.09_PT042H.grib2 2026-05-03 20:52 340K
20260503T18Z_MSC_RDPS_SpecificHumidity_AGL-120m_RLatLon0.09_PT042H.grib2 2026-05-03 20:52 498K
20260503T18Z_MSC_RDPS_SpecificHumidity_AGL-2m_RLatLon0.09_PT042H.grib2 2026-05-03 20:52 668K
20260503T18Z_MSC_RDPS_SpecificHumidity_AGL-40m_RLatLon0.09_PT042H.grib2 2026-05-03 20:52 504K
20260503T18Z_MSC_RDPS_SpecificHumidity_AGL-80m_RLatLon0.09_PT042H.grib2 2026-05-03 20:52 500K
20260503T18Z_MSC_RDPS_SpecificHumidity_IsbL-0001_RLatLon0.09_PT042H.grib2 2026-05-03 20:52 403K
20260503T18Z_MSC_RDPS_SpecificHumidity_IsbL-0005_RLatLon0.09_PT042H.grib2 2026-05-03 20:52 374K
20260503T18Z_MSC_RDPS_SpecificHumidity_IsbL-0010_RLatLon0.09_PT042H.grib2 2026-05-03 20:52 402K
20260503T18Z_MSC_RDPS_SpecificHumidity_IsbL-0020_RLatLon0.09_PT042H.grib2 2026-05-03 20:52 384K
20260503T18Z_MSC_RDPS_SpecificHumidity_IsbL-0030_RLatLon0.09_PT042H.grib2 2026-05-03 20:52 377K
20260503T18Z_MSC_RDPS_SpecificHumidity_IsbL-0050_RLatLon0.09_PT042H.grib2 2026-05-03 20:52 487K
20260503T18Z_MSC_RDPS_SpecificHumidity_IsbL-0100_RLatLon0.09_PT042H.grib2 2026-05-03 20:52 423K
20260503T18Z_MSC_RDPS_SpecificHumidity_IsbL-0150_RLatLon0.09_PT042H.grib2 2026-05-03 20:52 450K
20260503T18Z_MSC_RDPS_SpecificHumidity_IsbL-0175_RLatLon0.09_PT042H.grib2 2026-05-03 20:52 438K
20260503T18Z_MSC_RDPS_SpecificHumidity_IsbL-0200_RLatLon0.09_PT042H.grib2 2026-05-03 20:52 456K
20260503T18Z_MSC_RDPS_SpecificHumidity_IsbL-0225_RLatLon0.09_PT042H.grib2 2026-05-03 20:52 453K
20260503T18Z_MSC_RDPS_SpecificHumidity_IsbL-0250_RLatLon0.09_PT042H.grib2 2026-05-03 20:52 514K
20260503T18Z_MSC_RDPS_SpecificHumidity_IsbL-0275_RLatLon0.09_PT042H.grib2 2026-05-03 20:52 473K
20260503T18Z_MSC_RDPS_SpecificHumidity_IsbL-0300_RLatLon0.09_PT042H.grib2 2026-05-03 20:52 447K
20260503T18Z_MSC_RDPS_SpecificHumidity_IsbL-0350_RLatLon0.09_PT042H.grib2 2026-05-03 20:52 568K
20260503T18Z_MSC_RDPS_SpecificHumidity_IsbL-0400_RLatLon0.09_PT042H.grib2 2026-05-03 20:52 523K
20260503T18Z_MSC_RDPS_SpecificHumidity_IsbL-0450_RLatLon0.09_PT042H.grib2 2026-05-03 20:52 573K
20260503T18Z_MSC_RDPS_SpecificHumidity_IsbL-0500_RLatLon0.09_PT042H.grib2 2026-05-03 20:52 504K
20260503T18Z_MSC_RDPS_SpecificHumidity_IsbL-0550_RLatLon0.09_PT042H.grib2 2026-05-03 20:52 574K
20260503T18Z_MSC_RDPS_SpecificHumidity_IsbL-0600_RLatLon0.09_PT042H.grib2 2026-05-03 20:52 620K
20260503T18Z_MSC_RDPS_SpecificHumidity_IsbL-0650_RLatLon0.09_PT042H.grib2 2026-05-03 20:52 537K
20260503T18Z_MSC_RDPS_SpecificHumidity_IsbL-0700_RLatLon0.09_PT042H.grib2 2026-05-03 20:52 584K
20260503T18Z_MSC_RDPS_SpecificHumidity_IsbL-0750_RLatLon0.09_PT042H.grib2 2026-05-03 20:52 641K
20260503T18Z_MSC_RDPS_SpecificHumidity_IsbL-0800_RLatLon0.09_PT042H.grib2 2026-05-03 20:52 716K
20260503T18Z_MSC_RDPS_SpecificHumidity_IsbL-0850_RLatLon0.09_PT042H.grib2 2026-05-03 20:52 808K
20260503T18Z_MSC_RDPS_SpecificHumidity_IsbL-0875_RLatLon0.09_PT042H.grib2 2026-05-03 20:52 834K
20260503T18Z_MSC_RDPS_SpecificHumidity_IsbL-0900_RLatLon0.09_PT042H.grib2 2026-05-03 20:52 845K
20260503T18Z_MSC_RDPS_SpecificHumidity_IsbL-0925_RLatLon0.09_PT042H.grib2 2026-05-03 20:52 845K
20260503T18Z_MSC_RDPS_SpecificHumidity_IsbL-0950_RLatLon0.09_PT042H.grib2 2026-05-03 20:52 844K
20260503T18Z_MSC_RDPS_SpecificHumidity_IsbL-0970_RLatLon0.09_PT042H.grib2 2026-05-03 20:52 699K
20260503T18Z_MSC_RDPS_SpecificHumidity_IsbL-0985_RLatLon0.09_PT042H.grib2 2026-05-03 20:52 694K
20260503T18Z_MSC_RDPS_SpecificHumidity_IsbL-1000_RLatLon0.09_PT042H.grib2 2026-05-03 20:52 690K
20260503T18Z_MSC_RDPS_SpecificHumidity_IsbL-1015_RLatLon0.09_PT042H.grib2 2026-05-03 20:52 684K
20260503T18Z_MSC_RDPS_SpecificHumidity_Sfc_RLatLon0.09_PT042H.grib2 2026-05-03 20:52 298K
20260503T18Z_MSC_RDPS_StormRelativeHelicity_EtaL-10000_RLatLon0.09_PT042H.grib2 2026-05-03 20:52 1.1M
20260503T18Z_MSC_RDPS_StormSeverityIndex_EtaL-10000_RLatLon0.09_PT042H.grib2 2026-05-03 20:52 1.1M
20260503T18Z_MSC_RDPS_Thickness_IsbL-0850to0700_RLatLon0.09_PT042H.grib2 2026-05-03 20:52 179K
20260503T18Z_MSC_RDPS_Thickness_IsbL-1000to0500_RLatLon0.09_PT042H.grib2 2026-05-03 20:52 199K
20260503T18Z_MSC_RDPS_Thickness_IsbL-1000to0850_RLatLon0.09_PT042H.grib2 2026-05-03 20:52 263K
20260503T18Z_MSC_RDPS_TotalCloudCover_Sfc_RLatLon0.09_PT042H.grib2 2026-05-03 20:52 676K
20260503T18Z_MSC_RDPS_TotalTotalsIndex_Sfc_RLatLon0.09_PT042H.grib2 2026-05-03 20:52 2.4M
20260503T18Z_MSC_RDPS_UVIndex-ClearSky_Sfc_RLatLon0.09_PT042H.grib2 2026-05-03 20:52 146K
20260503T18Z_MSC_RDPS_UVIndex_Sfc_RLatLon0.09_PT042H.grib2 2026-05-03 20:52 356K
20260503T18Z_MSC_RDPS_UpwardLongwaveRadiationFlux_NTAtm_RLatLon0.09_PT042H.grib2 2026-05-03 20:52 489K
20260503T18Z_MSC_RDPS_UpwardShortwaveRadiationFlux_NTAtm_RLatLon0.09_PT042H.grib2 2026-05-03 20:52 316K
20260503T18Z_MSC_RDPS_VerticalVelocity_IsbL-0250_RLatLon0.09_PT042H.grib2 2026-05-03 20:52 437K
20260503T18Z_MSC_RDPS_VerticalVelocity_IsbL-0500_RLatLon0.09_PT042H.grib2 2026-05-03 20:52 555K
20260503T18Z_MSC_RDPS_VerticalVelocity_IsbL-0700_RLatLon0.09_PT042H.grib2 2026-05-03 20:52 603K
20260503T18Z_MSC_RDPS_VerticalVelocity_IsbL-0850_RLatLon0.09_PT042H.grib2 2026-05-03 20:52 714K
20260503T18Z_MSC_RDPS_VerticalWindShear_EtaL-6500_RLatLon0.09_PT042H.grib2 2026-05-03 20:52 1.2M
20260503T18Z_MSC_RDPS_WindChill_Sfc_RLatLon0.09_PT042H.grib2 2026-05-03 20:52 1.2M
20260503T18Z_MSC_RDPS_WindDir_AGL-10m_RLatLon0.09_PT042H.grib2 2026-05-03 20:52 1.0M
20260503T18Z_MSC_RDPS_WindDir_AGL-120m_RLatLon0.09_PT042H.grib2 2026-05-03 20:52 610K
20260503T18Z_MSC_RDPS_WindDir_AGL-40m_RLatLon0.09_PT042H.grib2 2026-05-03 20:52 642K
20260503T18Z_MSC_RDPS_WindDir_AGL-80m_RLatLon0.09_PT042H.grib2 2026-05-03 20:52 623K
20260503T18Z_MSC_RDPS_WindDir_IsbL-0001_RLatLon0.09_PT042H.grib2 2026-05-03 20:52 312K
20260503T18Z_MSC_RDPS_WindDir_IsbL-0005_RLatLon0.09_PT042H.grib2 2026-05-03 20:52 394K
20260503T18Z_MSC_RDPS_WindDir_IsbL-0010_RLatLon0.09_PT042H.grib2 2026-05-03 20:52 406K
20260503T18Z_MSC_RDPS_WindDir_IsbL-0020_RLatLon0.09_PT042H.grib2 2026-05-03 20:52 417K
20260503T18Z_MSC_RDPS_WindDir_IsbL-0030_RLatLon0.09_PT042H.grib2 2026-05-03 20:52 423K
20260503T18Z_MSC_RDPS_WindDir_IsbL-0050_RLatLon0.09_PT042H.grib2 2026-05-03 20:52 437K
20260503T18Z_MSC_RDPS_WindDir_IsbL-0100_RLatLon0.09_PT042H.grib2 2026-05-03 20:52 424K
20260503T18Z_MSC_RDPS_WindDir_IsbL-0150_RLatLon0.09_PT042H.grib2 2026-05-03 20:52 409K
20260503T18Z_MSC_RDPS_WindDir_IsbL-0175_RLatLon0.09_PT042H.grib2 2026-05-03 20:52 434K
20260503T18Z_MSC_RDPS_WindDir_IsbL-0200_RLatLon0.09_PT042H.grib2 2026-05-03 20:52 451K
20260503T18Z_MSC_RDPS_WindDir_IsbL-0225_RLatLon0.09_PT042H.grib2 2026-05-03 20:52 456K
20260503T18Z_MSC_RDPS_WindDir_IsbL-0250_RLatLon0.09_PT042H.grib2 2026-05-03 20:52 454K
20260503T18Z_MSC_RDPS_WindDir_IsbL-0275_RLatLon0.09_PT042H.grib2 2026-05-03 20:52 473K
20260503T18Z_MSC_RDPS_WindDir_IsbL-0300_RLatLon0.09_PT042H.grib2 2026-05-03 20:52 471K
20260503T18Z_MSC_RDPS_WindDir_IsbL-0350_RLatLon0.09_PT042H.grib2 2026-05-03 20:52 497K
20260503T18Z_MSC_RDPS_WindDir_IsbL-0400_RLatLon0.09_PT042H.grib2 2026-05-03 20:52 509K
20260503T18Z_MSC_RDPS_WindDir_IsbL-0450_RLatLon0.09_PT042H.grib2 2026-05-03 20:52 531K
20260503T18Z_MSC_RDPS_WindDir_IsbL-0500_RLatLon0.09_PT042H.grib2 2026-05-03 20:52 539K
20260503T18Z_MSC_RDPS_WindDir_IsbL-0550_RLatLon0.09_PT042H.grib2 2026-05-03 20:52 552K
20260503T18Z_MSC_RDPS_WindDir_IsbL-0600_RLatLon0.09_PT042H.grib2 2026-05-03 20:52 572K
20260503T18Z_MSC_RDPS_WindDir_IsbL-0650_RLatLon0.09_PT042H.grib2 2026-05-03 20:52 614K
20260503T18Z_MSC_RDPS_WindDir_IsbL-0700_RLatLon0.09_PT042H.grib2 2026-05-03 20:52 661K
20260503T18Z_MSC_RDPS_WindDir_IsbL-0750_RLatLon0.09_PT042H.grib2 2026-05-03 20:52 714K
20260503T18Z_MSC_RDPS_WindDir_IsbL-0800_RLatLon0.09_PT042H.grib2 2026-05-03 20:52 781K
20260503T18Z_MSC_RDPS_WindDir_IsbL-0850_RLatLon0.09_PT042H.grib2 2026-05-03 20:52 871K
20260503T18Z_MSC_RDPS_WindDir_IsbL-0875_RLatLon0.09_PT042H.grib2 2026-05-03 20:52 903K
20260503T18Z_MSC_RDPS_WindDir_IsbL-0900_RLatLon0.09_PT042H.grib2 2026-05-03 20:52 916K
20260503T18Z_MSC_RDPS_WindDir_IsbL-0925_RLatLon0.09_PT042H.grib2 2026-05-03 20:52 922K
20260503T18Z_MSC_RDPS_WindDir_IsbL-0950_RLatLon0.09_PT042H.grib2 2026-05-03 20:52 918K
20260503T18Z_MSC_RDPS_WindDir_IsbL-0970_RLatLon0.09_PT042H.grib2 2026-05-03 20:52 924K
20260503T18Z_MSC_RDPS_WindDir_IsbL-0985_RLatLon0.09_PT042H.grib2 2026-05-03 20:52 933K
20260503T18Z_MSC_RDPS_WindDir_IsbL-1000_RLatLon0.09_PT042H.grib2 2026-05-03 20:52 948K
20260503T18Z_MSC_RDPS_WindDir_IsbL-1015_RLatLon0.09_PT042H.grib2 2026-05-03 20:52 968K
20260503T18Z_MSC_RDPS_WindGust-Max_AGL-10m_RLatLon0.09_PT042H.grib2 2026-05-03 20:52 969K
20260503T18Z_MSC_RDPS_WindGust-Min_AGL-10m_RLatLon0.09_PT042H.grib2 2026-05-03 20:52 1.0M
20260503T18Z_MSC_RDPS_WindGust_AGL-10m_RLatLon0.09_PT042H.grib2 2026-05-03 20:52 1.0M
20260503T18Z_MSC_RDPS_WindSpeed_AGL-10m_RLatLon0.09_PT042H.grib2 2026-05-03 20:52 861K
20260503T18Z_MSC_RDPS_WindSpeed_AGL-120m_RLatLon0.09_PT042H.grib2 2026-05-03 20:52 556K
20260503T18Z_MSC_RDPS_WindSpeed_AGL-40m_RLatLon0.09_PT042H.grib2 2026-05-03 20:52 558K
20260503T18Z_MSC_RDPS_WindSpeed_AGL-80m_RLatLon0.09_PT042H.grib2 2026-05-03 20:52 557K
20260503T18Z_MSC_RDPS_WindSpeed_IsbL-0001_RLatLon0.09_PT042H.grib2 2026-05-03 20:52 334K
20260503T18Z_MSC_RDPS_WindSpeed_IsbL-0005_RLatLon0.09_PT042H.grib2 2026-05-03 20:52 387K
20260503T18Z_MSC_RDPS_WindSpeed_IsbL-0010_RLatLon0.09_PT042H.grib2 2026-05-03 20:52 402K
20260503T18Z_MSC_RDPS_WindSpeed_IsbL-0020_RLatLon0.09_PT042H.grib2 2026-05-03 20:52 425K
20260503T18Z_MSC_RDPS_WindSpeed_IsbL-0030_RLatLon0.09_PT042H.grib2 2026-05-03 20:52 325K
20260503T18Z_MSC_RDPS_WindSpeed_IsbL-0050_RLatLon0.09_PT042H.grib2 2026-05-03 20:52 356K
20260503T18Z_MSC_RDPS_WindSpeed_IsbL-0100_RLatLon0.09_PT042H.grib2 2026-05-03 20:52 480K
20260503T18Z_MSC_RDPS_WindSpeed_IsbL-0150_RLatLon0.09_PT042H.grib2 2026-05-03 20:52 380K
20260503T18Z_MSC_RDPS_WindSpeed_IsbL-0175_RLatLon0.09_PT042H.grib2 2026-05-03 20:52 426K
20260503T18Z_MSC_RDPS_WindSpeed_IsbL-0200_RLatLon0.09_PT042H.grib2 2026-05-03 20:52 438K
20260503T18Z_MSC_RDPS_WindSpeed_IsbL-0225_RLatLon0.09_PT042H.grib2 2026-05-03 20:52 443K
20260503T18Z_MSC_RDPS_WindSpeed_IsbL-0250_RLatLon0.09_PT042H.grib2 2026-05-03 20:52 447K
20260503T18Z_MSC_RDPS_WindSpeed_IsbL-0275_RLatLon0.09_PT042H.grib2 2026-05-03 20:52 462K
20260503T18Z_MSC_RDPS_WindSpeed_IsbL-0300_RLatLon0.09_PT042H.grib2 2026-05-03 20:52 460K
20260503T18Z_MSC_RDPS_WindSpeed_IsbL-0350_RLatLon0.09_PT042H.grib2 2026-05-03 20:52 473K
20260503T18Z_MSC_RDPS_WindSpeed_IsbL-0400_RLatLon0.09_PT042H.grib2 2026-05-03 20:52 477K
20260503T18Z_MSC_RDPS_WindSpeed_IsbL-0450_RLatLon0.09_PT042H.grib2 2026-05-03 20:52 464K
20260503T18Z_MSC_RDPS_WindSpeed_IsbL-0500_RLatLon0.09_PT042H.grib2 2026-05-03 20:52 465K
20260503T18Z_MSC_RDPS_WindSpeed_IsbL-0550_RLatLon0.09_PT042H.grib2 2026-05-03 20:52 464K
20260503T18Z_MSC_RDPS_WindSpeed_IsbL-0600_RLatLon0.09_PT042H.grib2 2026-05-03 20:52 589K
20260503T18Z_MSC_RDPS_WindSpeed_IsbL-0650_RLatLon0.09_PT042H.grib2 2026-05-03 20:52 609K
20260503T18Z_MSC_RDPS_WindSpeed_IsbL-0700_RLatLon0.09_PT042H.grib2 2026-05-03 20:52 633K
20260503T18Z_MSC_RDPS_WindSpeed_IsbL-0750_RLatLon0.09_PT042H.grib2 2026-05-03 20:52 664K
20260503T18Z_MSC_RDPS_WindSpeed_IsbL-0800_RLatLon0.09_PT042H.grib2 2026-05-03 20:52 718K
20260503T18Z_MSC_RDPS_WindSpeed_IsbL-0850_RLatLon0.09_PT042H.grib2 2026-05-03 20:52 835K
20260503T18Z_MSC_RDPS_WindSpeed_IsbL-0875_RLatLon0.09_PT042H.grib2 2026-05-03 20:52 860K
20260503T18Z_MSC_RDPS_WindSpeed_IsbL-0900_RLatLon0.09_PT042H.grib2 2026-05-03 20:52 874K
20260503T18Z_MSC_RDPS_WindSpeed_IsbL-0925_RLatLon0.09_PT042H.grib2 2026-05-03 20:52 886K
20260503T18Z_MSC_RDPS_WindSpeed_IsbL-0950_RLatLon0.09_PT042H.grib2 2026-05-03 20:52 886K
20260503T18Z_MSC_RDPS_WindSpeed_IsbL-0970_RLatLon0.09_PT042H.grib2 2026-05-03 20:52 882K
20260503T18Z_MSC_RDPS_WindSpeed_IsbL-0985_RLatLon0.09_PT042H.grib2 2026-05-03 20:52 873K
20260503T18Z_MSC_RDPS_WindSpeed_IsbL-1000_RLatLon0.09_PT042H.grib2 2026-05-03 20:52 868K
20260503T18Z_MSC_RDPS_WindSpeed_IsbL-1015_RLatLon0.09_PT042H.grib2 2026-05-03 20:52 861K
20260503T18Z_MSC_RDPS_WindU_AGL-10m_RLatLon0.09_PT042H.grib2 2026-05-03 20:52 440K
20260503T18Z_MSC_RDPS_WindU_AGL-120m_RLatLon0.09_PT042H.grib2 2026-05-03 20:52 429K
20260503T18Z_MSC_RDPS_WindU_AGL-40m_RLatLon0.09_PT042H.grib2 2026-05-03 20:52 550K
20260503T18Z_MSC_RDPS_WindU_AGL-80m_RLatLon0.09_PT042H.grib2 2026-05-03 20:52 431K
20260503T18Z_MSC_RDPS_WindU_IsbL-0001_RLatLon0.09_PT042H.grib2 2026-05-03 20:52 293K
20260503T18Z_MSC_RDPS_WindU_IsbL-0005_RLatLon0.09_PT042H.grib2 2026-05-03 20:52 286K
20260503T18Z_MSC_RDPS_WindU_IsbL-0010_RLatLon0.09_PT042H.grib2 2026-05-03 20:52 298K
20260503T18Z_MSC_RDPS_WindU_IsbL-0020_RLatLon0.09_PT042H.grib2 2026-05-03 20:52 317K
20260503T18Z_MSC_RDPS_WindU_IsbL-0030_RLatLon0.09_PT042H.grib2 2026-05-03 20:52 355K
20260503T18Z_MSC_RDPS_WindU_IsbL-0050_RLatLon0.09_PT042H.grib2 2026-05-03 20:52 384K
20260503T18Z_MSC_RDPS_WindU_IsbL-0100_RLatLon0.09_PT042H.grib2 2026-05-03 20:52 338K
20260503T18Z_MSC_RDPS_WindU_IsbL-0150_RLatLon0.09_PT042H.grib2 2026-05-03 20:52 396K
20260503T18Z_MSC_RDPS_WindU_IsbL-0175_RLatLon0.09_PT042H.grib2 2026-05-03 20:52 420K
20260503T18Z_MSC_RDPS_WindU_IsbL-0200_RLatLon0.09_PT042H.grib2 2026-05-03 20:52 335K
20260503T18Z_MSC_RDPS_WindU_IsbL-0225_RLatLon0.09_PT042H.grib2 2026-05-03 20:52 338K
20260503T18Z_MSC_RDPS_WindU_IsbL-0250_RLatLon0.09_PT042H.grib2 2026-05-03 20:52 339K
20260503T18Z_MSC_RDPS_WindU_IsbL-0275_RLatLon0.09_PT042H.grib2 2026-05-03 20:52 352K
20260503T18Z_MSC_RDPS_WindU_IsbL-0300_RLatLon0.09_PT042H.grib2 2026-05-03 20:52 348K
20260503T18Z_MSC_RDPS_WindU_IsbL-0350_RLatLon0.09_PT042H.grib2 2026-05-03 20:52 358K
20260503T18Z_MSC_RDPS_WindU_IsbL-0400_RLatLon0.09_PT042H.grib2 2026-05-03 20:52 362K
20260503T18Z_MSC_RDPS_WindU_IsbL-0450_RLatLon0.09_PT042H.grib2 2026-05-03 20:52 468K
20260503T18Z_MSC_RDPS_WindU_IsbL-0500_RLatLon0.09_PT042H.grib2 2026-05-03 20:52 470K
20260503T18Z_MSC_RDPS_WindU_IsbL-0550_RLatLon0.09_PT042H.grib2 2026-05-03 20:52 470K
20260503T18Z_MSC_RDPS_WindU_IsbL-0600_RLatLon0.09_PT042H.grib2 2026-05-03 20:52 478K
20260503T18Z_MSC_RDPS_WindU_IsbL-0650_RLatLon0.09_PT042H.grib2 2026-05-03 20:52 496K
20260503T18Z_MSC_RDPS_WindU_IsbL-0700_RLatLon0.09_PT042H.grib2 2026-05-03 20:52 501K
20260503T18Z_MSC_RDPS_WindU_IsbL-0750_RLatLon0.09_PT042H.grib2 2026-05-03 20:52 530K
20260503T18Z_MSC_RDPS_WindU_IsbL-0800_RLatLon0.09_PT042H.grib2 2026-05-03 20:52 577K
20260503T18Z_MSC_RDPS_WindU_IsbL-0850_RLatLon0.09_PT042H.grib2 2026-05-03 20:52 649K
20260503T18Z_MSC_RDPS_WindU_IsbL-0875_RLatLon0.09_PT042H.grib2 2026-05-03 20:52 662K
20260503T18Z_MSC_RDPS_WindU_IsbL-0900_RLatLon0.09_PT042H.grib2 2026-05-03 20:52 679K
20260503T18Z_MSC_RDPS_WindU_IsbL-0925_RLatLon0.09_PT042H.grib2 2026-05-03 20:52 684K
20260503T18Z_MSC_RDPS_WindU_IsbL-0950_RLatLon0.09_PT042H.grib2 2026-05-03 20:52 675K
20260503T18Z_MSC_RDPS_WindU_IsbL-0970_RLatLon0.09_PT042H.grib2 2026-05-03 20:52 669K
20260503T18Z_MSC_RDPS_WindU_IsbL-0985_RLatLon0.09_PT042H.grib2 2026-05-03 20:52 805K
20260503T18Z_MSC_RDPS_WindU_IsbL-1000_RLatLon0.09_PT042H.grib2 2026-05-03 20:52 801K
20260503T18Z_MSC_RDPS_WindU_IsbL-1015_RLatLon0.09_PT042H.grib2 2026-05-03 20:52 796K
20260503T18Z_MSC_RDPS_WindV_AGL-10m_RLatLon0.09_PT042H.grib2 2026-05-03 20:52 442K
20260503T18Z_MSC_RDPS_WindV_AGL-120m_RLatLon0.09_PT042H.grib2 2026-05-03 20:52 430K
20260503T18Z_MSC_RDPS_WindV_AGL-40m_RLatLon0.09_PT042H.grib2 2026-05-03 20:52 551K
20260503T18Z_MSC_RDPS_WindV_AGL-80m_RLatLon0.09_PT042H.grib2 2026-05-03 20:52 549K
20260503T18Z_MSC_RDPS_WindV_IsbL-0001_RLatLon0.09_PT042H.grib2 2026-05-03 20:52 247K
20260503T18Z_MSC_RDPS_WindV_IsbL-0005_RLatLon0.09_PT042H.grib2 2026-05-03 20:52 291K
20260503T18Z_MSC_RDPS_WindV_IsbL-0010_RLatLon0.09_PT042H.grib2 2026-05-03 20:52 302K
20260503T18Z_MSC_RDPS_WindV_IsbL-0020_RLatLon0.09_PT042H.grib2 2026-05-03 20:52 319K
20260503T18Z_MSC_RDPS_WindV_IsbL-0030_RLatLon0.09_PT042H.grib2 2026-05-03 20:52 357K
20260503T18Z_MSC_RDPS_WindV_IsbL-0050_RLatLon0.09_PT042H.grib2 2026-05-03 20:52 349K
20260503T18Z_MSC_RDPS_WindV_IsbL-0100_RLatLon0.09_PT042H.grib2 2026-05-03 20:52 337K
20260503T18Z_MSC_RDPS_WindV_IsbL-0150_RLatLon0.09_PT042H.grib2 2026-05-03 20:52 393K
20260503T18Z_MSC_RDPS_WindV_IsbL-0175_RLatLon0.09_PT042H.grib2 2026-05-03 20:52 323K
20260503T18Z_MSC_RDPS_WindV_IsbL-0200_RLatLon0.09_PT042H.grib2 2026-05-03 20:52 333K
20260503T18Z_MSC_RDPS_WindV_IsbL-0225_RLatLon0.09_PT042H.grib2 2026-05-03 20:52 363K
20260503T18Z_MSC_RDPS_WindV_IsbL-0250_RLatLon0.09_PT042H.grib2 2026-05-03 20:52 364K
20260503T18Z_MSC_RDPS_WindV_IsbL-0275_RLatLon0.09_PT042H.grib2 2026-05-03 20:52 375K
20260503T18Z_MSC_RDPS_WindV_IsbL-0300_RLatLon0.09_PT042H.grib2 2026-05-03 20:52 373K
20260503T18Z_MSC_RDPS_WindV_IsbL-0350_RLatLon0.09_PT042H.grib2 2026-05-03 20:52 357K
20260503T18Z_MSC_RDPS_WindV_IsbL-0400_RLatLon0.09_PT042H.grib2 2026-05-03 20:52 361K
20260503T18Z_MSC_RDPS_WindV_IsbL-0450_RLatLon0.09_PT042H.grib2 2026-05-03 20:52 365K
20260503T18Z_MSC_RDPS_WindV_IsbL-0500_RLatLon0.09_PT042H.grib2 2026-05-03 20:52 468K
20260503T18Z_MSC_RDPS_WindV_IsbL-0550_RLatLon0.09_PT042H.grib2 2026-05-03 20:52 468K
20260503T18Z_MSC_RDPS_WindV_IsbL-0600_RLatLon0.09_PT042H.grib2 2026-05-03 20:52 476K
20260503T18Z_MSC_RDPS_WindV_IsbL-0650_RLatLon0.09_PT042H.grib2 2026-05-03 20:52 477K
20260503T18Z_MSC_RDPS_WindV_IsbL-0700_RLatLon0.09_PT042H.grib2 2026-05-03 20:52 499K
20260503T18Z_MSC_RDPS_WindV_IsbL-0750_RLatLon0.09_PT042H.grib2 2026-05-03 20:52 540K
20260503T18Z_MSC_RDPS_WindV_IsbL-0800_RLatLon0.09_PT042H.grib2 2026-05-03 20:52 573K
20260503T18Z_MSC_RDPS_WindV_IsbL-0850_RLatLon0.09_PT042H.grib2 2026-05-03 20:52 636K
20260503T18Z_MSC_RDPS_WindV_IsbL-0875_RLatLon0.09_PT042H.grib2 2026-05-03 20:52 659K
20260503T18Z_MSC_RDPS_WindV_IsbL-0900_RLatLon0.09_PT042H.grib2 2026-05-03 20:52 671K
20260503T18Z_MSC_RDPS_WindV_IsbL-0925_RLatLon0.09_PT042H.grib2 2026-05-03 20:52 677K
20260503T18Z_MSC_RDPS_WindV_IsbL-0950_RLatLon0.09_PT042H.grib2 2026-05-03 20:52 674K
20260503T18Z_MSC_RDPS_WindV_IsbL-0970_RLatLon0.09_PT042H.grib2 2026-05-03 20:52 670K
20260503T18Z_MSC_RDPS_WindV_IsbL-0985_RLatLon0.09_PT042H.grib2 2026-05-03 20:52 807K
20260503T18Z_MSC_RDPS_WindV_IsbL-1000_RLatLon0.09_PT042H.grib2 2026-05-03 20:52 802K
20260503T18Z_MSC_RDPS_WindV_IsbL-1015_RLatLon0.09_PT042H.grib2 2026-05-03 20:52 843K